Wind_Speed
15 14 14 14 15 15 17 18 17 15 14 14 13 12 12 12 11 10 9 9 8 7 6 6 5 5 4 4 3 3 2 1 1 0 1 1 2 2 3 3 3 3 4 4 4 4 3 3 3
14 14 14 15 16 17 18 17 16 15 14 14 13 12 12 12 11 11 10 10 9 8 7 6 6 5 5 4 3 3 3 2 1 1 1 1 2 2 3 3 3 3 3 4 4 4 4 4 3
15 15 15 16 16 17 18 17 16 16 15 14 13 13 12 12 11 11 10 10 10 9 8 7 6 5 5 4 3 3 3 2 1 1 2 2 2 2 2 2 3 3 3 3 3 4 3 4 3
14 15 16 16 17 17 16 16 16 16 15 14 14 13 12 12 11 11 11 11 10 9 8 8 7 6 6 5 4 3 2 2 2 2 2 1 1 2 2 2 3 3 3 3 3 3 3 3 3
14 16 16 16 17 17 16 16 16 15 14 14 14 13 12 12 12 12 11 11 11 10 9 8 7 7 6 5 4 3 3 3 2 2 1 1 1 1 1 1 2 3 2 2 2 2 2 2 3
14 14 14 16 16 16 16 16 15 14 14 14 14 13 12 12 12 12 11 11 11 10 9 8 7 7 6 4 5 5 4 3 2 2 1 1 1 1 1 1 1 2 2 2 2 2 2 1 2
12 13 14 15 16 16 16 15 15 15 14 13 13 13 13 13 12 12 12 12 12 10 9 8 8 7 7 6 6 5 5 3 2 3 2 2 3 2 1 0 1 1 1 1 2 2 2 2 1
12 12 14 15 15 15 15 15 16 16 14 13 13 14 13 13 13 12 11 12 12 11 10 8 8 7 7 7 7 7 5 4 4 5 4 4 3 2 2 2 1 1 1 2 2 3 3 2 1
10 11 12 13 13 14 15 15 15 15 15 14 14 13 13 12 12 11 11 11 11 11 10 9 8 8 7 7 8 7 6 5 5 5 5 5 4 4 3 3 2 1 0 2 2 2 3 2 2
10 10 10 10 11 12 14 15 14 14 14 13 13 13 13 12 12 11 10 11 11 10 10 9 9 9 9 8 9 7 6 6 5 6 5 4 3 4 3 3 2 2 1 1 2 2 2 2 3
8 8 8 8 9 10 13 13 13 13 13 13 12 12 12 12 12 12 11 11 11 10 10 10 9 9 9 8 8 8 7 6 6 5 5 5 4 3 3 2 2 1 1 1 2 2 2 2 3
7 7 6 7 7 9 10 11 13 13 13 12 12 12 12 12 12 12 11 10 10 10 10 9 9 9 9 8 8 7 6 5 5 5 4 4 4 3 3 3 2 2 2 2 2 1 1 1 2
6 6 5 6 6 7 8 9 11 12 13 13 13 13 12 12 12 11 11 10 10 10 9 9 8 8 8 8 7 7 6 5 5 5 4 4 3 3 3 4 3 2 2 2 1 1 1 2 2
4 5 5 5 5 6 7 8 9 10 12 13 14 13 12 12 12 12 11 11 10 9 9 9 9 9 9 8 7 7 7 6 5 5 5 4 4 4 4 3 3 3 2 2 2 1 2 2 2
3 5 5 4 5 6 6 7 8 10 11 12 13 13 13 12 12 11 11 10 9 9 9 9 9 9 9 8 8 7 7 7 6 5 5 4 4 4 4 4 3 3 2 2 1 1 2 3 3
3 3 4 4 6 5 6 7 9 10 10 11 12 13 13 12 12 11 10 10 9 9 9 9 9 8 8 8 8 7 7 6 6 5 4 3 3 4 4 4 3 3 3 2 2 2 3 3 4
1 3 3 4 5 5 6 7 7 9 10 11 11 12 12 12 12 11 10 9 9 9 9 9 8 8 7 7 8 7 6 6 5 5 4 3 3 3 4 3 3 3 3 2 3 4 4 3 4
1 1 2 2 3 3 6 7 7 7 9 10 10 11 11 12 12 11 10 9 9 8 8 8 8 7 7 7 7 7 6 6 5 5 5 4 3 3 4 3 3 3 3 4 4 4 5 5 5
3 3 1 1 2 4 6 7 7 7 9 10 9 9 10 11 11 11 11 10 9 9 9 9 8 7 6 7 7 7 6 6 5 5 4 4 4 4 4 4 4 5 5 4 4 5 5 5 5
5 5 4 2 3 6 7 7 7 7 8 9 9 9 9 10 11 11 11 10 9 8 8 8 8 7 7 7 7 7 7 7 6 5 5 5 4 4 5 5 5 6 6 5 5 5 5 6 6
7 7 7 7 7 8 8 8 7 8 9 9 8 8 8 8 9 9 10 10 10 9 8 8 8 8 8 8 8 8 8 8 6 6 5 5 5 5 5 5 5 6 6 6 6 6 6 6 6
9 9 9 9 10 9 10 10 7 8 9 8 8 9 8 7 7 8 9 10 10 10 9 9 8 8 8 8 8 8 8 8 6 6 5 5 5 5 5 5 5 6 7 7 6 6 6 7 7
10 10 11 11 12 11 10 11 8 9 9 8 8 9 8 8 7 8 9 10 10 11 10 10 8 8 9 9 8 8 8 8 7 6 6 5 5 6 5 5 5 6 7 7 7 7 7 7 7
12 12 12 12 13 13 12 14 11 10 9 9 9 9 10 9 8 9 10 10 10 11 11 10 9 9 9 9 9 9 9 8 8 7 7 6 7 6 6 6 6 6 7 7 7 7 8 8 8
14 14 13 13 13 13 12 14 13 12 10 11 11 11 11 9 10 10 11 11 11 10 11 11 9 9 9 9 9 9 9 9 9 8 8 7 7 7 7 8 7 7 7 7 8 8 8 8 8
14 14 15 14 14 12 12 13 12 12 12 12 12 11 11 10 12 12 11 13 12 11 11 11 10 10 10 10 9 9 9 9 9 9 8 8 8 8 8 8 8 8 8 8 9 9 9 8 9
15 15 15 16 16 15 13 13 12 13 13 13 14 13 11 11 11 12 13 13 12 11 11 12 12 12 11 11 9 10 10 10 9 9 9 9 9 9 9 9 10 10 10 9 9 9 9 9 10
17 16 17 17 16 16 13 12 14 14 14 14 15 14 11 12 13 13 13 13 13 12 11 11 12 12 12 12 11 11 11 11 11 10 10 10 10 10 10 10 11 11 11 11 10 11 11 10 11
18 18 18 18 18 17 16 15 14 14 14 15 16 16 16 15 15 16 15 15 15 15 14 13 13 13 13 13 12 12 12 12 12 12 12 11 11 11 11 11 12 13 13 12 12 12 12 13 12
19 19 19 20 19 20 20 18 16 16 16 16 18 18 17 18 18 16 15 16 16 16 15 15 14 14 13 13 14 13 13 13 14 14 13 13 13 14 13 13 13 14 14 13 13 13 13 13 13
Wind_Direction
81 75 64 62 60 54 49 44 43 45 41 40 41 38 35 35 33 36 36 36 35 35 34 30 39 37 31 30 48 39 35 24 336 299 274 260 259 255 247 239 225 225 221 227 232 230 236 228 228
77 67 58 58 56 51 48 43 40 41 41 40 38 37 37 36 34 37 37 35 34 37 36 36 38 32 31 30 41 36 22 10 343 311 274 261 258 253 245 226 218 218 220 227 231 230 232 229 227
77 68 61 57 55 51 47 42 39 36 38 38 35 34 35 37 34 36 38 38 38 40 41 40 38 35 29 27 38 28 17 11 340 308 287 272 252 242 237 225 213 217 227 231 231 233 237 236 233
74 66 63 59 53 49 44 41 37 34 35 34 33 31 35 38 36 35 37 40 40 41 41 39 38 36 32 30 34 31 30 18 340 319 304 276 230 222 220 228 211 217 228 234 237 231 236 241 239
75 66 60 54 50 43 41 39 37 34 30 31 31 30 33 37 37 35 35 37 39 40 41 40 40 38 39 36 33 35 28 10 348 335 301 266 211 203 212 223 215 214 218 235 242 233 241 247 243
79 69 60 53 45 41 40 40 37 33 28 29 28 28 31 33 35 36 37 36 37 39 40 41 40 38 41 38 29 24 9 355 347 350 9 159 160 179 200 232 231 208 207 230 236 230 254 261 248
74 67 62 52 42 41 39 38 36 34 28 25 27 28 30 34 34 35 37 38 36 36 38 40 43 41 40 37 27 18 7 360 10 22 38 141 152 149 160 218 176 190 224 251 239 237 262 261 262
70 62 59 52 45 40 36 32 32 33 30 28 27 26 27 29 31 33 34 37 38 36 34 34 37 33 31 32 30 25 27 40 39 40 61 100 107 110 98 100 104 139 238 262 251 252 265 248 237
70 60 56 53 46 43 36 27 24 25 28 28 26 23 22 24 25 27 30 35 39 35 33 32 31 32 32 31 29 33 45 58 58 65 72 86 84 79 76 66 64 65 262 265 251 265 265 249 246
73 60 51 48 49 44 38 29 21 23 26 24 23 21 17 20 24 28 33 38 37 35 34 35 35 34 35 33 31 39 53 66 66 70 72 72 72 71 64 49 42 39 7 286 275 269 269 259 255
72 62 52 47 53 49 40 32 23 20 22 22 20 19 18 20 25 29 30 32 33 33 34 32 33 33 34 36 33 44 56 70 71 67 67 64 61 61 59 49 33 18 19 329 301 279 264 256 254
76 66 45 42 52 51 42 33 21 14 18 17 16 17 18 20 22 27 28 28 30 31 33 33 30 31 34 36 34 39 52 63 66 65 64 65 62 52 46 34 10 356 343 337 331 305 246 253 262
76 67 57 46 45 43 40 33 18 9 13 15 12 13 11 14 18 21 23 26 28 29 30 32 33 35 36 37 37 38 41 53 51 46 54 53 48 41 34 23 23 20 7 351 345 302 260 261 272
79 71 71 61 47 35 36 27 15 9 11 13 10 10 9 10 14 16 20 23 25 30 31 30 31 33 36 40 44 43 40 42 40 40 40 42 36 30 27 20 22 5 341 332 340 320 269 271 281
80 70 59 47 36 28 22 19 18 12 10 10 7 7 7 10 11 12 18 20 23 24 27 30 32 35 36 40 44 42 39 42 41 39 40 41 36 30 22 17 7 360 339 325 312 303 286 277 288
79 53 49 47 34 19 13 17 17 11 8 7 3 2 6 11 10 10 15 16 17 17 17 21 28 33 38 40 39 36 34 35 32 30 30 24 23 15 4 358 2 359 355 349 335 319 307 299 292
63 37 62 51 35 17 359 0 3 359 1 358 358 0 4 8 10 10 12 11 12 12 13 15 18 27 36 37 36 29 24 24 20 17 10 6 11 7 0 355 348 339 333 329 324 322 313 305 303
264 333 60 53 30 355 331 337 343 346 348 348 354 358 1 2 4 8 8 9 8 6 7 6 7 13 25 28 24 21 16 12 9 7 3 357 352 350 348 348 339 334 323 318 322 322 317 310 302
216 235 251 0 332 313 310 316 325 330 333 332 339 349 352 353 357 2 3 2 1 359 360 360 359 1 5 10 12 9 6 3 0 358 355 349 345 341 339 338 333 334 335 331 326 327 329 327 319
243 245 249 256 276 288 294 296 308 318 320 321 332 343 345 347 350 353 354 354 351 349 349 353 354 354 357 356 355 356 356 354 350 348 345 340 340 341 343 341 334 328 330 330 326 326 327 326 322
250 246 247 253 260 275 279 283 295 304 308 312 319 326 329 338 339 341 345 346 344 341 342 344 347 348 346 345 344 343 341 342 339 340 335 332 332 334 340 340 336 332 330 325 318 315 316 319 320
247 243 245 257 262 272 278 277 279 293 300 304 312 313 314 318 328 335 336 337 339 339 339 341 341 342 340 337 338 336 334 336 334 330 327 325 326 327 330 336 335 334 331 327 320 318 316 314 317
246 245 252 260 259 265 271 279 271 288 298 308 316 313 305 312 316 326 331 332 335 335 334 334 334 332 331 330 329 328 329 330 325 321 317 316 319 321 318 322 330 333 332 329 325 321 320 317 316
249 252 256 262 261 264 269 275 275 284 299 312 311 311 305 307 312 318 322 326 328 328 326 323 322 321 320 320 322 325 325 327 324 322 314 315 316 316 315 317 317 324 328 329 328 325 321 317 316
254 255 257 258 260 266 272 276 281 286 289 299 303 308 308 304 309 311 311 318 320 323 326 322 318 315 314 314 315 316 319 321 318 317 315 311 310 311 314 314 312 313 317 320 322 320 319 319 318
255 252 257 262 266 272 276 279 276 284 281 287 292 294 300 299 306 306 306 313 317 321 323 325 322 314 309 305 306 307 309 314 312 308 307 304 304 305 307 311 311 309 308 310 313 314 314 315 316
247 248 257 261 264 270 276 278 273 278 282 286 289 288 291 295 300 303 306 309 313 314 317 316 316 311 305 300 301 302 300 303 303 299 297 297 298 299 302 306 308 307 305 307 309 311 310 311 312
245 251 255 258 264 269 271 274 280 283 281 286 290 286 294 299 299 302 306 309 310 311 313 311 309 307 303 301 302 304 300 296 297 296 293 293 293 297 300 302 303 302 299 297 301 306 304 306 306
243 242 246 253 260 267 271 272 278 281 280 282 281 283 290 298 298 298 299 304 308 311 308 303 303 302 304 304 302 303 301 293 291 294 293 291 288 289 294 296 301 301 299 298 297 299 299 300 301
248 245 245 249 255 259 264 268 274 279 279 281 281 282 285 293 294 295 298 303 307 308 307 304 302 302 304 303 301 301 300 295 290 290 291 290 288 288 290 294 296 296 296 297 295 294 294 297 298
Height
5910 5909 5908 5907 5907 5906 5904 5904 5903 5903 5902 5901 5899 5898 5897 5896 5896 5897 5893 5891 5889 5888 5887 5886 5886 5886 5885 5885 5884 5884 5884 5884 5884 5884 5884 5883 5883 5883 5883 5883 5883 5883 5884 5884 5884 5885 5885 5885 5885
5911 5911 5911 5909 5908 5907 5906 5905 5905 5905 5904 5902 5901 5900 5898 5897 5895 5894 5893 5891 5890 5888 5887 5887 5886 5886 5886 5885 5885 5884 5884 5884 5884 5883 5883 5883 5883 5882 5882 5882 5882 5883 5883 5883 5884 5884 5885 5885 5885
5913 5912 5912 5911 5909 5908 5908 5907 5906 5906 5905 5903 5902 5901 5900 5898 5896 5895 5893 5892 5890 5889 5888 5887 5887 5886 5886 5885 5885 5884 5884 5883 5883 5883 5882 5882 5882 5882 5882 5882 5882 5882 5883 5883 5883 5884 5884 5884 5884
5914 5914 5913 5912 5910 5910 5909 5909 5908 5907 5906 5905 5903 5902 5900 5899 5897 5895 5894 5892 5891 5890 5889 5888 5887 5887 5886 5885 5885 5884 5883 5883 5882 5882 5881 5881 5881 5881 5882 5882 5882 5882 5883 5883 5883 5883 5884 5884 5884
5916 5916 5915 5913 5911 5911 5911 5910 5910 5909 5907 5906 5904 5903 5901 5900 5898 5896 5894 5893 5892 5891 5890 5889 5888 5887 5886 5885 5884 5884 5883 5882 5881 5880 5880 5880 5881 5881 5881 5882 5882 5882 5882 5883 5883 5883 5883 5883 5883
5918 5917 5916 5914 5913 5913 5913 5912 5911 5910 5908 5907 5905 5903 5902 5901 5899 5897 5895 5894 5893 5892 5890 5889 5888 5887 5886 5885 5884 5883 5882 5881 5880 5879 5878 5879 5880 5881 5881 5881 5882 5882 5882 5882 5883 5883 5883 5883 5883
5920 5918 5917 5916 5915 5914 5914 5913 5912 5912 5910 5908 5906 5904 5902 5901 5900 5898 5896 5895 5893 5892 5891 5890 5888 5887 5887 5886 5885 5883 5882 5880 5879 5877 5874 5876 5879 5880 5881 5881 5881 5882 5882 5882 5882 5882 5882 5882 5882
5920 5920 5918 5917 5916 5916 5915 5914 5913 5912 5911 5909 5907 5905 5903 5902 5901 5899 5897 5896 5894 5893 5892 5890 5889 5888 5887 5886 5884 5882 5881 5880 5879 5876 5874 5876 5879 5880 5881 5881 5881 5881 5882 5882 5882 5882 5882 5881 5881
5921 5922 5919 5919 5918 5916 5916 5915 5915 5913 5911 5909 5908 5906 5905 5903 5901 5900 5898 5897 5895 5894 5892 5891 5889 5888 5887 5886 5884 5882 5880 5880 5880 5879 5878 5879 5880 5880 5881 5881 5881 5881 5881 5881 5881 5881 5881 5881 5880
5922 5922 5921 5920 5919 5917 5917 5916 5915 5914 5912 5910 5909 5907 5905 5904 5902 5901 5899 5898 5896 5895 5893 5892 5891 5889 5888 5886 5884 5881 5880 5881 5881 5881 5880 5881 5881 5881 5882 5882 5881 5881 5881 5880 5880 5880 5880 5880 5880
5923 5923 5922 5920 5919 5918 5918 5917 5916 5915 5913 5912 5910 5908 5906 5904 5903 5902 5900 5898 5897 5896 5894 5893 5891 5890 5888 5887 5885 5882 5881 5881 5882 5882 5882 5882 5882 5882 5882 5881 5881 5881 5880 5880 5879 5879 5879 5879 5879
5924 5923 5922 5921 5920 5919 5918 5918 5917 5916 5915 5912 5910 5909 5907 5905 5904 5902 5901 5900 5898 5896 5895 5894 5892 5890 5889 5887 5886 5885 5884 5883 5883 5883 5882 5882 5882 5882 5882 5881 5881 5880 5880 5880 5879 5879 5878 5878 5878
5924 5923 5922 5921 5921 5920 5919 5918 5918 5916 5915 5913 5911 5909 5908 5906 5904 5903 5901 5900 5899 5897 5896 5894 5893 5891 5890 5888 5887 5886 5885 5884 5884 5884 5883 5883 5882 5882 5882 5881 5881 5880 5880 5879 5879 5878 5878 5878 5877
5924 5923 5923 5922 5921 5920 5919 5919 5918 5917 5915 5913 5911 5910 5908 5906 5905 5903 5901 5900 5899 5898 5896 5895 5893 5892 5891 5889 5888 5887 5886 5885 5885 5884 5884 5883 5883 5882 5882 5881 5880 5880 5879 5878 5878 5877 5877 5877 5877
5923 5923 5923 5922 5921 5920 5920 5919 5918 5917 5916 5914 5912 5911 5909 5906 5905 5903 5902 5900 5899 5898 5896 5895 5894 5892 5891 5890 5889 5888 5887 5886 5885 5885 5884 5883 5883 5882 5882 5881 5880 5879 5879 5878 5877 5877 5877 5876 5876
5923 5923 5923 5922 5921 5920 5921 5920 5919 5917 5916 5914 5913 5911 5910 5907 5905 5904 5902 5901 5899 5898 5897 5895 5894 5893 5892 5891 5890 5889 5888 5887 5886 5885 5884 5883 5882 5882 5881 5881 5880 5879 5878 5877 5877 5876 5875 5875 5874
5922 5922 5922 5922 5921 5920 5919 5919 5918 5917 5916 5915 5913 5912 5910 5908 5906 5904 5903 5901 5900 5899 5897 5896 5894 5893 5892 5891 5890 5889 5888 5887 5886 5885 5884 5883 5882 5881 5881 5880 5879 5878 5877 5877 5876 5875 5874 5873 5873
5921 5921 5920 5920 5920 5919 5918 5918 5917 5916 5915 5914 5913 5912 5910 5909 5907 5905 5904 5902 5900 5899 5897 5896 5894 5893 5892 5891 5890 5889 5888 5887 5885 5884 5883 5882 5881 5881 5880 5879 5878 5877 5876 5876 5875 5874 5873 5872 5871
5919 5919 5919 5919 5918 5917 5917 5916 5916 5915 5914 5913 5912 5911 5910 5909 5908 5906 5904 5902 5901 5899 5898 5896 5894 5893 5892 5890 5889 5888 5888 5886 5885 5884 5883 5882 5881 5880 5879 5878 5877 5876 5875 5874 5873 5872 5871 5870 5869
5917 5917 5918 5918 5917 5916 5915 5915 5914 5913 5913 5912 5911 5910 5909 5908 5907 5905 5904 5902 5901 5899 5897 5896 5894 5893 5891 5890 5889 5888 5887 5885 5884 5883 5882 5881 5880 5879 5878 5877 5876 5875 5874 5873 5872 5871 5869 5868 5867
5915 5916 5916 5916 5915 5914 5914 5914 5914 5912 5911 5910 5910 5909 5908 5907 5906 5905 5903 5901 5900 5898 5897 5895 5893 5892 5891 5889 5888 5887 5885 5884 5883 5882 5881 5880 5879 5877 5877 5876 5875 5874 5872 5871 5870 5869 5868 5867 5866
5913 5913 5914 5913 5913 5912 5913 5911 5912 5910 5909 5908 5907 5907 5906 5904 5904 5903 5902 5900 5899 5897 5895 5894 5892 5891 5889 5888 5887 5886 5884 5883 5882 5881 5880 5878 5878 5876 5875 5874 5873 5872 5871 5870 5869 5868 5867 5866 5864
5910 5910 5911 5910 5910 5910 5910 5909 5910 5908 5907 5906 5905 5904 5904 5903 5903 5902 5901 5899 5897 5895 5894 5892 5891 5889 5888 5886 5885 5884 5883 5881 5880 5879 5878 5877 5876 5875 5874 5873 5872 5871 5870 5868 5867 5866 5865 5864 5863
5907 5907 5907 5907 5907 5907 5907 5906 5907 5906 5905 5903 5902 5902 5902 5901 5900 5900 5899 5897 5895 5893 5892 5890 5889 5887 5886 5884 5883 5882 5881 5880 5879 5878 5876 5875 5875 5874 5873 5871 5870 5869 5868 5867 5866 5864 5863 5862 5861
5904 5904 5904 5904 5904 5904 5904 5903 5904 5903 5901 5900 5900 5899 5899 5898 5898 5898 5896 5894 5893 5891 5890 5888 5887 5885 5883 5882 5881 5880 5879 5878 5877 5876 5875 5874 5873 5872 5871 5870 5869 5867 5866 5865 5864 5862 5861 5860 5859
5900 5901 5901 5901 5900 5900 5900 5899 5900 5899 5898 5897 5897 5896 5896 5896 5895 5895 5894 5892 5890 5889 5887 5886 5884 5883 5881 5880 5879 5878 5877 5876 5875 5874 5873 5872 5871 5870 5869 5868 5867 5865 5864 5863 5862 5860 5859 5858 5856
5896 5897 5897 5897 5896 5896 5896 5896 5895 5895 5894 5893 5893 5893 5893 5892 5892 5892 5891 5889 5887 5886 5884 5882 5881 5880 5878 5877 5876 5875 5874 5873 5872 5871 5870 5869 5868 5868 5867 5866 5864 5863 5862 5860 5859 5858 5857 5855 5854
5893 5893 5893 5893 5893 5892 5893 5892 5892 5891 5890 5890 5890 5890 5890 5890 5889 5888 5887 5886 5885 5882 5880 5878 5877 5875 5874 5873 5872 5872 5871 5870 5869 5869 5868 5867 5866 5865 5864 5863 5862 5860 5859 5858 5857 5855 5854 5852 5851
5888 5888 5888 5888 5889 5888 5888 5891 5889 5887 5886 5886 5886 5886 5886 5886 5885 5884 5884 5883 5881 5879 5878 5875 5872 5871 5870 5870 5869 5868 5867 5866 5866 5865 5864 5863 5863 5861 5861 5859 5858 5857 5856 5855 5854 5852 5851 5849 5847
5882 5882 5883 5884 5885 5884 5884 5887 5885 5884 5883 5882 5882 5882 5882 5882 5880 5879 5879 5878 5877 5876 5874 5871 5869 5867 5866 5866 5865 5864 5863 5862 5862 5861 5860 5859 5859 5858 5857 5856 5855 5854 5852 5851 5850 5849 5847 5845 5844